VLG65PM EHAM-LEMG

Flight info

Callsign VLG65PM
Flight time 2h 38m
Altitude 23000
Route WOODY N872 CIV/N0441F390 DCT KOVIN DCT DUCRA UM728 RESMI UN857 DISAK DCT ARKIP DCT ARNAV DCT LMG DCT UVELI DCT OSMOB DCT VAVIX DCT NETUK DCT PPN DCT NOLSA DCT ALEPO DCT VASUM N10 BANEV DCT BAN DCT GOTOR DCT KAMPO DCT MONTO DCT CRISA N864 VULPE
Aircraft A320/M-SDE3FGHIRWY/LB1

Departure

Time 2026-04-30 09:50
Airport Amsterdam Airport Schiphol (EHAM)

Arrival

Time 2026-04-30 12:29
Airport Málaga-Costa del Sol Airport (LEMG)
Time Latitude Longitude Altitude Speed Heading
2026-04-30 09:13 52.30411 4.76361 -1 ft 0 kts 238°
2026-04-30 09:24 52.30411 4.76362 -1 ft 0 kts 238°
2026-04-30 09:36 52.30420 4.76384 -1 ft 4 kts 229°
2026-04-30 09:36 52.30440 4.76410 0 ft 4 kts 195°
2026-04-30 09:36 52.30461 4.76409 -1 ft 2 kts 148°
2026-04-30 09:36 52.30465 4.76405 2 ft 1 kts 148°
2026-04-30 09:40 52.30461 4.76409 -1 ft 2 kts 148°
2026-04-30 09:40 52.30435 4.76436 -1 ft 6 kts 148°
2026-04-30 09:41 52.30385 4.76487 -1 ft 10 kts 148°
2026-04-30 09:41 52.30332 4.76582 -1 ft 13 kts 96°
2026-04-30 09:41 52.30333 4.76720 -1 ft 13 kts 133°
2026-04-30 09:41 52.30325 4.76857 -1 ft 15 kts 57°
2026-04-30 09:42 52.30385 4.77012 -1 ft 18 kts 58°
2026-04-30 09:42 52.30454 4.77195 -1 ft 20 kts 57°
2026-04-30 09:42 52.30531 4.77395 -1 ft 22 kts 58°
2026-04-30 09:42 52.30629 4.77575 -1 ft 22 kts 19°
2026-04-30 09:43 52.30792 4.77601 -1 ft 25 kts
2026-04-30 09:43 52.30973 4.77617 -1 ft 27 kts
2026-04-30 09:43 52.31167 4.77635 -1 ft 28 kts
2026-04-30 09:43 52.31367 4.77656 -1 ft 24 kts
2026-04-30 09:44 52.31405 4.77654 -1 ft 2 kts 357°
2026-04-30 09:44 52.31428 4.77651 -1 ft 5 kts 351°
2026-04-30 09:44 52.31469 4.77621 -1 ft 8 kts 325°
2026-04-30 09:44 52.31483 4.77601 -1 ft 0 kts 317°
2026-04-30 09:45 52.31484 4.77600 -1 ft 0 kts 317°
2026-04-30 09:45 52.31494 4.77584 -1 ft 6 kts 317°
2026-04-30 09:45 52.31544 4.77532 -1 ft 10 kts 350°
2026-04-30 09:46 52.31587 4.77616 -1 ft 12 kts 88°
2026-04-30 09:46 52.31588 4.77691 -1 ft 0 kts 86°
2026-04-30 09:48 52.31591 4.77746 -1 ft 11 kts 86°
2026-04-30 09:48 52.31596 4.77890 0 ft 14 kts 86°
2026-04-30 09:48 52.31557 4.77962 1 ft 6 kts 187°
2026-04-30 09:49 52.31552 4.77962 1 ft 0 kts 185°
2026-04-30 09:49 52.31503 4.77955 1 ft 25 kts 184°
2026-04-30 09:50 52.31028 4.77918 -4 ft 106 kts 183°
2026-04-30 09:50 52.30093 4.77827 2 ft 161 kts 181°
2026-04-30 09:50 52.28917 4.77699 484 ft 173 kts 178°
2026-04-30 09:50 52.27724 4.77640 1382 ft 164 kts 165°
2026-04-30 09:51 52.26657 4.78077 2358 ft 155 kts 156°
2026-04-30 09:51 52.25611 4.78600 3033 ft 165 kts 154°
2026-04-30 09:51 52.24456 4.79225 3447 ft 190 kts 155°
2026-04-30 09:51 52.23110 4.79963 3926 ft 217 kts 156°
2026-04-30 09:52 52.21586 4.80741 4707 ft 233 kts 162°
2026-04-30 09:52 52.19939 4.80859 5661 ft 248 kts 179°
2026-04-30 09:52 52.18208 4.80544 6709 ft 253 kts 181°
2026-04-30 09:52 52.16424 4.80206 7579 ft 262 kts 181°
2026-04-30 09:53 52.14604 4.79886 8562 ft 265 kts 180°
2026-04-30 09:53 52.12762 4.79595 9571 ft 267 kts 179°
2026-04-30 09:53 52.10906 4.79319 10576 ft 268 kts 179°
2026-04-30 09:53 52.09029 4.79051 11358 ft 275 kts 179°
2026-04-30 09:54 52.07090 4.78782 12108 ft 284 kts 180°
2026-04-30 09:54 52.05096 4.78507 12873 ft 292 kts 180°
2026-04-30 09:54 52.03049 4.78222 13658 ft 298 kts 180°
2026-04-30 09:54 52.00966 4.77931 14422 ft 304 kts 181°
2026-04-30 09:55 51.98840 4.77637 15134 ft 309 kts 181°
2026-04-30 09:55 51.96689 4.77337 15868 ft 313 kts 181°
2026-04-30 09:55 51.94508 4.77026 16630 ft 317 kts 182°
2026-04-30 09:55 51.92321 4.76339 17405 ft 323 kts 193°
2026-04-30 09:56 51.90207 4.75024 18187 ft 328 kts 203°
2026-04-30 09:56 51.88131 4.73380 18735 ft 339 kts 202°
2026-04-30 09:56 51.85959 4.71682 19095 ft 353 kts 202°
2026-04-30 09:56 51.83713 4.69935 19454 ft 365 kts 202°
2026-04-30 09:57 51.81382 4.68124 19805 ft 378 kts 202°
2026-04-30 09:57 51.78975 4.66249 20199 ft 388 kts 202°
2026-04-30 09:57 51.76522 4.64342 20728 ft 394 kts 203°
2026-04-30 09:57 51.74045 4.62418 21316 ft 397 kts 203°
2026-04-30 09:58 51.71540 4.60477 21876 ft 401 kts 202°
2026-04-30 09:58 51.69009 4.58516 22415 ft 405 kts 202°
2026-04-30 09:58 51.66460 4.56541 22966 ft 408 kts 204°
2026-04-30 09:58 51.64589 4.55094 23395 ft 410 kts 204°
2026-04-30 09:59 51.59569 4.51221 24366 ft 418 kts 202°
2026-04-30 09:59 51.54300 4.47167 25352 ft 422 kts 202°
2026-04-30 10:00 51.48968 4.43073 26298 ft 427 kts 203°
2026-04-30 10:00 51.46279 4.41013 26802 ft 429 kts 203°
2026-04-30 10:01 51.40870 4.36888 27746 ft 433 kts 202°
2026-04-30 10:01 51.38135 4.34807 28201 ft 436 kts 202°
2026-04-30 10:01 51.35392 4.32721 28658 ft 438 kts 202°
2026-04-30 10:02 51.29849 4.28509 29561 ft 444 kts 202°
2026-04-30 10:02 51.27053 4.26383 30010 ft 447 kts 202°
2026-04-30 10:02 51.24235 4.24244 30439 ft 449 kts 202°
2026-04-30 10:02 51.21405 4.22102 30805 ft 452 kts 202°
2026-04-30 10:03 51.18553 4.19948 31189 ft 454 kts 202°
2026-04-30 10:03 51.15655 4.17931 31562 ft 454 kts 197°
2026-04-30 10:03 51.12666 4.16276 31942 ft 456 kts 196°
2026-04-30 10:03 51.09657 4.14620 32369 ft 457 kts 196°
2026-04-30 10:04 51.06662 4.12972 32926 ft 455 kts 196°
2026-04-30 10:04 51.03675 4.11332 33489 ft 453 kts 195°
2026-04-30 10:04 51.00697 4.09706 34045 ft 451 kts 195°
2026-04-30 10:04 50.97738 4.08098 34569 ft 450 kts 195°
2026-04-30 10:05 50.94781 4.06493 35039 ft 449 kts 195°
2026-04-30 10:05 50.91827 4.04890 35478 ft 448 kts 195°
2026-04-30 10:05 50.88880 4.03289 35913 ft 448 kts 195°
2026-04-30 10:05 50.85944 4.01637 36327 ft 448 kts 197°
2026-04-30 10:06 50.83043 3.99858 36737 ft 448 kts 199°
2026-04-30 10:06 50.80156 3.97986 37149 ft 448 kts 200°
2026-04-30 10:06 50.77274 3.96067 37306 ft 448 kts 200°
2026-04-30 10:07 50.71549 3.92276 37314 ft 445 kts 199°
2026-04-30 10:07 50.65814 3.88599 37315 ft 445 kts 199°
2026-04-30 10:08 50.60072 3.84980 37309 ft 445 kts 199°
2026-04-30 10:08 50.54345 3.81311 37313 ft 444 kts 200°
2026-04-30 10:09 50.48673 3.77420 37304 ft 445 kts 201°
2026-04-30 10:09 50.43011 3.73478 37299 ft 445 kts 201°
2026-04-30 10:10 50.37337 3.69592 37304 ft 445 kts 200°
2026-04-30 10:10 50.31648 3.65758 37309 ft 445 kts 200°
2026-04-30 10:11 50.26006 3.61960 37298 ft 444 kts 201°
2026-04-30 10:11 50.20332 3.58134 37295 ft 444 kts 201°
2026-04-30 10:12 50.14668 3.54319 37291 ft 443 kts 201°
2026-04-30 10:12 50.09005 3.50514 37285 ft 443 kts 201°
2026-04-30 10:13 50.03335 3.46724 37280 ft 443 kts 201°
2026-04-30 10:13 49.97654 3.42952 37268 ft 443 kts 200°
2026-04-30 10:14 49.91979 3.39191 37266 ft 444 kts 201°
2026-04-30 10:14 49.83466 3.33550 37250 ft 444 kts 202°
2026-04-30 10:15 49.77782 3.29777 37244 ft 444 kts 200°
2026-04-30 10:15 49.72089 3.26020 37226 ft 445 kts 201°
2026-04-30 10:16 49.66396 3.22277 37218 ft 445 kts 200°
2026-04-30 10:17 49.57833 3.16685 37221 ft 446 kts 200°
2026-04-30 10:17 49.49268 3.11038 37237 ft 448 kts 203°
2026-04-30 10:18 49.43981 3.05924 37235 ft 450 kts 211°
2026-04-30 10:19 49.36147 2.97974 37208 ft 450 kts 210°
2026-04-30 10:19 49.30910 2.92705 37221 ft 450 kts 211°
2026-04-30 10:20 49.25675 2.87435 37208 ft 451 kts 211°
2026-04-30 10:20 49.17853 2.79555 37199 ft 451 kts 210°
2026-04-30 10:21 49.12615 2.74296 37198 ft 451 kts 210°
2026-04-30 10:21 49.07375 2.69047 37209 ft 451 kts 211°
2026-04-30 10:22 49.02126 2.63810 37214 ft 450 kts 211°
2026-04-30 10:22 48.96890 2.58600 37227 ft 449 kts 211°
2026-04-30 10:23 48.91668 2.53422 37220 ft 447 kts 210°
2026-04-30 10:23 48.86457 2.48273 37214 ft 446 kts 211°
2026-04-30 10:24 48.81260 2.43137 37215 ft 446 kts 211°
2026-04-30 10:24 48.76066 2.38007 37213 ft 445 kts 211°
2026-04-30 10:25 48.70877 2.32897 37212 ft 445 kts 211°
2026-04-30 10:25 48.65676 2.27807 37208 ft 445 kts 210°
2026-04-30 10:26 48.60478 2.22727 37199 ft 445 kts 211°
2026-04-30 10:26 48.54958 2.18701 37179 ft 439 kts 194°
2026-04-30 10:27 48.49018 2.16681 37163 ft 437 kts 189°
2026-04-30 10:27 48.43072 2.14755 37177 ft 437 kts 189°
2026-04-30 10:28 48.37130 2.12823 37154 ft 437 kts 191°
2026-04-30 10:28 48.31193 2.10915 37156 ft 436 kts 188°
2026-04-30 10:29 48.25194 2.10658 37144 ft 431 kts 171°
2026-04-30 10:29 48.19262 2.11928 37126 ft 431 kts 171°
2026-04-30 10:30 48.13286 2.12920 37124 ft 433 kts 179°
2026-04-30 10:30 48.07319 2.12006 37129 ft 435 kts 187°
2026-04-30 10:31 48.01312 2.10851 37138 ft 436 kts 187°
2026-04-30 10:31 47.95298 2.09706 37144 ft 436 kts 186°
2026-04-30 10:32 47.89281 2.08562 37147 ft 436 kts 186°
2026-04-30 10:32 47.83259 2.07418 37151 ft 436 kts 186°
2026-04-30 10:33 47.77237 2.06269 37121 ft 436 kts 186°
2026-04-30 10:33 47.71214 2.05116 37123 ft 436 kts 186°
2026-04-30 10:34 47.65194 2.03960 37115 ft 437 kts 188°
2026-04-30 10:34 47.59384 2.01330 37111 ft 438 kts 200°
2026-04-30 10:35 47.53714 1.98042 37113 ft 437 kts 200°
2026-04-30 10:35 47.48046 1.94772 37113 ft 437 kts 200°
2026-04-30 10:36 47.42377 1.91495 37111 ft 437 kts 200°
2026-04-30 10:36 47.36716 1.88236 37112 ft 437 kts 200°
2026-04-30 10:37 47.31062 1.84985 37129 ft 436 kts 200°
2026-04-30 10:37 47.25409 1.81743 37132 ft 435 kts 200°
2026-04-30 10:38 47.19763 1.78521 37120 ft 435 kts 201°
2026-04-30 10:38 47.14118 1.75320 37119 ft 434 kts 200°
2026-04-30 10:39 47.08470 1.72149 37121 ft 434 kts 200°
2026-04-30 10:39 47.02868 1.69022 37124 ft 434 kts 200°
2026-04-30 10:40 46.97239 1.65853 37126 ft 433 kts 200°
2026-04-30 10:40 46.91607 1.62692 37131 ft 433 kts 200°
2026-04-30 10:41 46.85984 1.59558 37129 ft 433 kts 200°
2026-04-30 10:41 46.80353 1.56423 37124 ft 433 kts 200°
2026-04-30 10:42 46.74721 1.53294 37119 ft 433 kts 200°
2026-04-30 10:42 46.69087 1.50171 37119 ft 433 kts 200°
2026-04-30 10:43 46.63450 1.47051 37120 ft 433 kts 200°
2026-04-30 10:43 46.57816 1.43938 37116 ft 433 kts 200°
2026-04-30 10:44 46.52178 1.40834 37124 ft 433 kts 200°
2026-04-30 10:44 46.46547 1.37739 37126 ft 432 kts 200°
2026-04-30 10:45 46.40967 1.34686 37120 ft 431 kts 200°
2026-04-30 10:45 46.35351 1.31616 37119 ft 431 kts 200°
2026-04-30 10:46 46.29734 1.28558 37125 ft 431 kts 200°
2026-04-30 10:46 46.24121 1.25500 37123 ft 431 kts 200°
2026-04-30 10:47 46.18501 1.22444 37128 ft 431 kts 200°
2026-04-30 10:47 46.13795 1.19893 37134 ft 431 kts 200°
2026-04-30 10:48 46.08224 1.16876 37147 ft 430 kts 200°
2026-04-30 10:48 46.02625 1.13862 37151 ft 429 kts 200°
2026-04-30 10:49 45.97029 1.10845 37154 ft 429 kts 200°
2026-04-30 10:49 45.91442 1.07837 37153 ft 429 kts 199°
2026-04-30 10:50 45.85847 1.04840 37152 ft 429 kts 199°
2026-04-30 10:50 45.80501 1.01097 37144 ft 430 kts 214°
2026-04-30 10:51 45.75858 0.95656 37133 ft 431 kts 219°
2026-04-30 10:51 45.71246 0.90148 37103 ft 432 kts 218°
2026-04-30 10:52 45.66627 0.84650 37109 ft 432 kts 218°
2026-04-30 10:52 45.62011 0.79154 37112 ft 432 kts 219°
2026-04-30 10:53 45.57422 0.73681 37106 ft 432 kts 219°
2026-04-30 10:53 45.52796 0.68196 37114 ft 433 kts 219°
2026-04-30 10:54 45.48162 0.62711 37113 ft 433 kts 219°
2026-04-30 10:54 45.43536 0.57242 37112 ft 432 kts 219°
2026-04-30 10:55 45.38906 0.51782 37110 ft 432 kts 219°
2026-04-30 10:55 45.34268 0.46327 37114 ft 432 kts 219°
2026-04-30 10:56 45.29632 0.40895 37116 ft 432 kts 219°
2026-04-30 10:56 45.24987 0.35461 37123 ft 432 kts 219°
2026-04-30 10:57 45.20347 0.30037 37108 ft 432 kts 219°
2026-04-30 10:57 45.15713 0.24632 37116 ft 431 kts 219°
2026-04-30 10:58 45.11088 0.19254 37113 ft 430 kts 219°
2026-04-30 10:58 45.06470 0.13890 37114 ft 429 kts 219°
2026-04-30 10:59 45.01845 0.08541 37111 ft 430 kts 219°
2026-04-30 10:59 44.97227 0.03201 37112 ft 428 kts 219°
2026-04-30 11:00 44.92620 -0.02112 37104 ft 427 kts 219°
2026-04-30 11:00 44.88016 -0.07409 37101 ft 427 kts 219°
2026-04-30 11:01 44.83413 -0.12702 37101 ft 427 kts 219°
2026-04-30 11:01 44.78837 -0.17952 37099 ft 427 kts 219°
2026-04-30 11:02 44.74209 -0.23265 37100 ft 427 kts 219°
2026-04-30 11:02 44.69625 -0.28490 37100 ft 427 kts 219°
2026-04-30 11:03 44.65008 -0.33727 37093 ft 427 kts 218°
2026-04-30 11:04 44.57750 -0.40947 37097 ft 426 kts 214°
2026-04-30 11:04 44.52802 -0.45521 37098 ft 426 kts 214°
2026-04-30 11:05 44.47893 -0.50151 37094 ft 425 kts 214°
2026-04-30 11:05 44.43009 -0.54848 37095 ft 425 kts 215°
2026-04-30 11:06 44.38136 -0.59532 37092 ft 425 kts 215°
2026-04-30 11:06 44.33254 -0.64197 37094 ft 425 kts 215°
2026-04-30 11:07 44.28370 -0.68849 37097 ft 425 kts 215°
2026-04-30 11:07 44.23466 -0.73435 37094 ft 424 kts 214°
2026-04-30 11:08 44.18532 -0.77950 37091 ft 424 kts 214°
2026-04-30 11:08 44.13587 -0.82465 37087 ft 425 kts 214°
2026-04-30 11:09 44.08636 -0.86989 37088 ft 426 kts 214°
2026-04-30 11:09 44.03686 -0.91520 37090 ft 426 kts 214°
2026-04-30 11:10 43.98731 -0.96049 37090 ft 426 kts 215°
2026-04-30 11:10 43.93769 -1.00572 37096 ft 426 kts 215°
2026-04-30 11:11 43.88813 -1.05080 37096 ft 426 kts 215°
2026-04-30 11:11 43.83850 -1.09589 37100 ft 426 kts 215°
2026-04-30 11:12 43.78893 -1.14080 37098 ft 425 kts 216°
2026-04-30 11:12 43.73972 -1.18522 37107 ft 424 kts 216°
2026-04-30 11:13 43.69033 -1.22975 37105 ft 424 kts 216°
2026-04-30 11:13 43.64099 -1.27407 37101 ft 423 kts 216°
2026-04-30 11:14 43.59165 -1.31834 37096 ft 422 kts 216°
2026-04-30 11:14 43.54246 -1.36245 37103 ft 421 kts 216°
2026-04-30 11:15 43.49327 -1.40640 37105 ft 421 kts 216°
2026-04-30 11:15 43.44422 -1.45020 37105 ft 420 kts 216°
2026-04-30 11:16 43.39521 -1.49397 37088 ft 420 kts 217°
2026-04-30 11:16 43.34627 -1.53758 37100 ft 419 kts 217°
2026-04-30 11:17 43.29733 -1.58095 37099 ft 418 kts 217°
2026-04-30 11:17 43.24461 -1.61538 37097 ft 427 kts 199°
2026-04-30 11:18 43.18543 -1.62778 37079 ft 432 kts 192°
2026-04-30 11:18 43.09583 -1.64243 37092 ft 433 kts 192°
2026-04-30 11:19 43.03610 -1.65233 37092 ft 433 kts 192°
2026-04-30 11:19 42.97626 -1.66228 37090 ft 433 kts 192°
2026-04-30 11:20 42.91644 -1.67217 37092 ft 433 kts 192°
2026-04-30 11:20 42.85662 -1.68198 37121 ft 433 kts 192°
2026-04-30 11:21 42.79677 -1.69173 37124 ft 433 kts 192°
2026-04-30 11:21 42.73747 -1.70430 37122 ft 427 kts 201°
2026-04-30 11:22 42.68379 -1.73578 37123 ft 419 kts 211°
2026-04-30 11:22 42.63153 -1.77102 37118 ft 419 kts 211°
2026-04-30 11:23 42.57950 -1.80578 37095 ft 419 kts 211°
2026-04-30 11:24 42.50111 -1.85827 37100 ft 419 kts 211°
2026-04-30 11:24 42.44883 -1.89320 37103 ft 419 kts 211°
2026-04-30 11:25 42.37046 -1.94555 37098 ft 418 kts 212°
2026-04-30 11:26 42.26634 -2.01480 37115 ft 416 kts 211°
2026-04-30 11:26 42.21435 -2.04922 37101 ft 416 kts 211°
2026-04-30 11:27 42.16243 -2.08344 37085 ft 415 kts 212°
2026-04-30 11:27 42.11057 -2.11765 37094 ft 414 kts 212°
2026-04-30 11:28 42.03301 -2.16881 37092 ft 414 kts 212°
2026-04-30 11:29 41.98129 -2.20292 37094 ft 414 kts 212°
2026-04-30 11:29 41.90379 -2.25367 37092 ft 413 kts 211°
2026-04-30 11:30 41.82633 -2.30424 37102 ft 412 kts 211°
2026-04-30 11:31 41.77474 -2.33786 37101 ft 412 kts 211°
2026-04-30 11:31 41.72319 -2.37149 37086 ft 412 kts 211°
2026-04-30 11:32 41.67172 -2.40506 37091 ft 412 kts 211°
2026-04-30 11:32 41.62013 -2.43858 37091 ft 412 kts 211°
2026-04-30 11:33 41.54284 -2.48860 37097 ft 412 kts 211°
2026-04-30 11:33 41.49131 -2.52187 37086 ft 411 kts 211°
2026-04-30 11:34 41.43986 -2.55500 37096 ft 410 kts 211°
2026-04-30 11:34 41.39716 -2.58245 37099 ft 410 kts 211°
2026-04-30 11:35 41.34577 -2.61546 37103 ft 410 kts 211°
2026-04-30 11:35 41.28985 -2.66107 37094 ft 404 kts 219°
2026-04-30 11:36 41.25113 -2.69684 37096 ft 405 kts 218°
2026-04-30 11:36 41.20476 -2.73936 37105 ft 405 kts 218°
2026-04-30 11:37 41.15084 -2.78869 37111 ft 405 kts 218°
2026-04-30 11:37 41.11202 -2.82423 37111 ft 405 kts 218°
2026-04-30 11:38 41.06569 -2.86662 37107 ft 404 kts 218°
2026-04-30 11:38 41.01966 -2.90867 37113 ft 404 kts 218°
2026-04-30 11:39 40.97337 -2.95089 37113 ft 404 kts 218°
2026-04-30 11:39 40.92702 -2.99308 37114 ft 404 kts 218°
2026-04-30 11:40 40.88071 -3.03517 37110 ft 404 kts 218°
2026-04-30 11:40 40.83442 -3.07725 37111 ft 404 kts 217°
2026-04-30 11:41 40.78808 -3.11928 37110 ft 404 kts 217°
2026-04-30 11:41 40.74170 -3.16118 37111 ft 404 kts 217°
2026-04-30 11:42 40.69526 -3.20301 37114 ft 404 kts 217°
2026-04-30 11:42 40.64888 -3.24479 37116 ft 404 kts 217°
2026-04-30 11:43 40.60247 -3.28655 37118 ft 404 kts 217°
2026-04-30 11:43 40.55604 -3.32825 37120 ft 404 kts 217°
2026-04-30 11:44 40.50958 -3.36990 37121 ft 404 kts 217°
2026-04-30 11:44 40.46311 -3.41145 37123 ft 404 kts 217°
2026-04-30 11:45 40.41687 -3.45268 37115 ft 404 kts 216°
2026-04-30 11:45 40.37034 -3.49423 37116 ft 405 kts 216°
2026-04-30 11:46 40.32378 -3.53576 37119 ft 405 kts 216°
2026-04-30 11:46 40.27719 -3.57722 37122 ft 405 kts 216°
2026-04-30 11:47 40.23055 -3.61860 37119 ft 405 kts 216°
2026-04-30 11:47 40.18395 -3.65994 37109 ft 405 kts 216°
2026-04-30 11:48 40.13732 -3.70118 37111 ft 405 kts 216°
2026-04-30 11:48 40.09053 -3.74239 37113 ft 405 kts 216°
2026-04-30 11:49 40.04384 -3.78351 37103 ft 405 kts 216°
2026-04-30 11:49 39.99711 -3.82461 37111 ft 405 kts 215°
2026-04-30 11:50 39.95032 -3.86569 37090 ft 405 kts 215°
2026-04-30 11:50 39.90351 -3.90675 37088 ft 406 kts 215°
2026-04-30 11:51 39.85668 -3.94776 37085 ft 406 kts 215°
2026-04-30 11:51 39.80977 -3.98878 37093 ft 406 kts 215°
2026-04-30 11:52 39.76280 -4.02973 37090 ft 406 kts 214°
2026-04-30 11:52 39.71578 -4.07062 37094 ft 407 kts 214°
2026-04-30 11:53 39.66625 -4.10413 37091 ft 408 kts 198°
2026-04-30 11:53 39.61164 -4.12475 37091 ft 409 kts 198°
2026-04-30 11:54 39.55702 -4.14504 37099 ft 409 kts 198°
2026-04-30 11:54 39.50228 -4.16537 37084 ft 409 kts 197°
2026-04-30 11:55 39.44750 -4.18581 37094 ft 409 kts 197°
2026-04-30 11:55 39.39283 -4.20616 37095 ft 409 kts 197°
2026-04-30 11:56 39.33807 -4.22656 37097 ft 410 kts 197°
2026-04-30 11:56 39.28327 -4.24692 37100 ft 409 kts 197°
2026-04-30 11:57 39.22850 -4.26720 37099 ft 409 kts 197°
2026-04-30 11:57 39.17376 -4.28743 37096 ft 409 kts 197°
2026-04-30 11:58 39.11897 -4.30766 37096 ft 410 kts 197°
2026-04-30 11:58 39.06412 -4.32782 37096 ft 410 kts 197°
2026-04-30 11:59 39.00938 -4.34796 37087 ft 409 kts 197°
2026-04-30 11:59 38.95458 -4.36805 37091 ft 409 kts 197°
2026-04-30 12:00 38.90018 -4.38800 37093 ft 409 kts 197°
2026-04-30 12:00 38.84547 -4.40800 37095 ft 409 kts 197°
2026-04-30 12:01 38.79075 -4.42807 37091 ft 409 kts 197°
2026-04-30 12:01 38.73603 -4.44810 37094 ft 409 kts 197°
2026-04-30 12:02 38.68093 -4.46813 37094 ft 409 kts 197°
2026-04-30 12:02 38.62660 -4.48781 37094 ft 409 kts 197°
2026-04-30 12:03 38.54451 -4.51763 36517 ft 409 kts 196°
2026-04-30 12:03 38.51713 -4.52757 36270 ft 409 kts 196°
2026-04-30 12:04 38.48972 -4.53749 36018 ft 409 kts 196°
2026-04-30 12:04 38.46235 -4.54737 35768 ft 410 kts 196°
2026-04-30 12:04 38.43492 -4.55725 35518 ft 410 kts 196°
2026-04-30 12:04 38.40733 -4.56719 35272 ft 411 kts 196°
2026-04-30 12:05 38.37987 -4.57711 35017 ft 408 kts 196°
2026-04-30 12:05 38.35263 -4.58694 34502 ft 406 kts 196°
2026-04-30 12:05 38.32550 -4.59674 33976 ft 404 kts 196°
2026-04-30 12:05 38.29856 -4.60650 33444 ft 401 kts 196°
2026-04-30 12:06 38.27190 -4.61611 32944 ft 397 kts 196°
2026-04-30 12:06 38.24537 -4.62563 32448 ft 393 kts 196°
2026-04-30 12:06 38.21917 -4.63500 31954 ft 390 kts 196°
2026-04-30 12:06 38.19319 -4.64429 31460 ft 387 kts 196°
2026-04-30 12:07 38.16731 -4.65356 30830 ft 386 kts 196°
2026-04-30 12:07 38.14115 -4.66295 29792 ft 396 kts 197°
2026-04-30 12:07 38.11434 -4.67259 28613 ft 402 kts 197°
2026-04-30 12:07 38.08738 -4.68227 27497 ft 402 kts 197°
2026-04-30 12:08 38.06062 -4.69186 26905 ft 397 kts 197°
2026-04-30 12:08 38.03430 -4.70126 26471 ft 389 kts 197°
2026-04-30 12:08 38.00853 -4.71042 26027 ft 382 kts 197°
2026-04-30 12:08 37.98341 -4.71938 25595 ft 377 kts 197°
2026-04-30 12:09 37.95835 -4.72835 25156 ft 372 kts 197°
2026-04-30 12:09 37.93351 -4.73723 24726 ft 369 kts 197°
2026-04-30 12:09 37.90893 -4.74600 24289 ft 366 kts 197°
2026-04-30 12:09 37.88454 -4.75469 23847 ft 362 kts 197°
2026-04-30 12:10 37.86036 -4.76329 23313 ft 361 kts 197°
2026-04-30 12:10 37.83633 -4.77184 22848 ft 356 kts 197°
2026-04-30 12:10 37.81267 -4.78026 22395 ft 351 kts 197°
2026-04-30 12:10 37.78927 -4.78857 21929 ft 347 kts 197°
2026-04-30 12:11 37.76605 -4.79620 21474 ft 343 kts 192°
2026-04-30 12:11 37.74231 -4.79883 20976 ft 343 kts 182°
2026-04-30 12:11 37.71852 -4.79893 20483 ft 341 kts 182°
2026-04-30 12:11 37.69485 -4.79901 19989 ft 339 kts 182°
2026-04-30 12:12 37.67131 -4.79911 19494 ft 338 kts 182°
2026-04-30 12:12 37.64779 -4.79926 18997 ft 337 kts 182°
2026-04-30 12:12 37.62436 -4.79943 18503 ft 336 kts 182°
2026-04-30 12:12 37.60101 -4.79961 17962 ft 335 kts 181°
2026-04-30 12:13 37.57780 -4.79980 17462 ft 332 kts 182°
2026-04-30 12:13 37.55477 -4.79998 16970 ft 330 kts 182°
2026-04-30 12:13 37.53196 -4.80014 16482 ft 328 kts 182°
2026-04-30 12:13 37.50922 -4.80028 15996 ft 326 kts 182°
2026-04-30 12:14 37.48654 -4.80040 15358 ft 325 kts 182°
2026-04-30 12:14 37.46393 -4.80053 14526 ft 325 kts 182°
2026-04-30 12:14 37.44130 -4.80067 13697 ft 325 kts 182°
2026-04-30 12:14 37.41884 -4.80083 12983 ft 319 kts 182°
2026-04-30 12:15 37.39676 -4.80099 12525 ft 316 kts 182°
2026-04-30 12:15 37.37483 -4.80114 12080 ft 313 kts 182°
2026-04-30 12:15 37.35315 -4.80128 11645 ft 310 kts 182°
2026-04-30 12:15 37.33163 -4.80144 11212 ft 307 kts 182°
2026-04-30 12:16 37.31033 -4.80160 10779 ft 305 kts 182°
2026-04-30 12:16 37.28929 -4.80174 10555 ft 296 kts 182°
2026-04-30 12:16 37.26924 -4.80187 10457 ft 278 kts 182°
2026-04-30 12:16 37.25086 -4.80199 10352 ft 259 kts 182°
2026-04-30 12:17 37.21397 -4.80230 10121 ft 264 kts 182°
2026-04-30 12:17 37.19591 -4.80243 10003 ft 255 kts 182°
2026-04-30 12:17 37.17841 -4.80237 9863 ft 248 kts 181°
2026-04-30 12:18 37.16139 -4.80217 9731 ft 243 kts 181°
2026-04-30 12:18 37.14455 -4.80195 9604 ft 241 kts 181°
2026-04-30 12:18 37.12777 -4.80173 9455 ft 241 kts 181°
2026-04-30 12:18 37.11096 -4.80153 9178 ft 241 kts 181°
2026-04-30 12:19 37.09425 -4.80132 8909 ft 240 kts 181°
2026-04-30 12:19 37.07763 -4.80110 8648 ft 238 kts 181°
2026-04-30 12:19 37.06109 -4.80091 8388 ft 237 kts 181°
2026-04-30 12:19 37.04466 -4.80073 8119 ft 236 kts 180°
2026-04-30 12:20 37.02826 -4.80055 7880 ft 235 kts 180°
2026-04-30 12:20 37.01191 -4.80036 7625 ft 235 kts 180°
2026-04-30 12:20 36.99562 -4.80018 7368 ft 234 kts 180°
2026-04-30 12:20 36.97934 -4.80001 7095 ft 234 kts 180°
2026-04-30 12:21 36.96314 -4.79983 6854 ft 232 kts 180°
2026-04-30 12:21 36.94698 -4.79964 6600 ft 232 kts 180°
2026-04-30 12:21 36.93094 -4.79843 6339 ft 231 kts 169°
2026-04-30 12:21 36.91556 -4.79235 6073 ft 232 kts 161°
2026-04-30 12:22 36.90058 -4.78577 5836 ft 231 kts 162°
2026-04-30 12:22 36.88550 -4.77917 5581 ft 229 kts 162°
2026-04-30 12:22 36.87057 -4.77256 5321 ft 226 kts 159°
2026-04-30 12:22 36.85667 -4.76361 5087 ft 224 kts 153°
2026-04-30 12:23 36.84303 -4.75438 4843 ft 222 kts 153°
2026-04-30 12:23 36.82953 -4.74529 4585 ft 219 kts 153°
2026-04-30 12:23 36.81615 -4.73630 4238 ft 221 kts 153°
2026-04-30 12:23 36.80233 -4.72705 3822 ft 226 kts 153°
2026-04-30 12:24 36.78882 -4.71797 3642 ft 213 kts 152°
2026-04-30 12:24 36.77691 -4.70829 3506 ft 198 kts 136°
2026-04-30 12:24 36.76931 -4.69477 3312 ft 187 kts 119°
2026-04-30 12:24 36.76345 -4.68067 3067 ft 179 kts 118°
2026-04-30 12:25 36.75783 -4.66715 2826 ft 173 kts 119°
2026-04-30 12:25 36.75237 -4.65408 2613 ft 167 kts 121°
2026-04-30 12:25 36.74707 -4.64141 2388 ft 162 kts 120°
2026-04-30 12:25 36.74196 -4.62920 2181 ft 157 kts 118°
2026-04-30 12:26 36.73706 -4.61750 1974 ft 146 kts 121°
2026-04-30 12:26 36.73253 -4.60667 1796 ft 138 kts 119°
2026-04-30 12:26 36.72818 -4.59630 1621 ft 133 kts 120°
2026-04-30 12:26 36.72535 -4.58954 1498 ft 133 kts 121°
2026-04-30 12:27 36.72113 -4.57966 1347 ft 129 kts 120°
2026-04-30 12:27 36.71698 -4.56964 1161 ft 136 kts 121°
2026-04-30 12:27 36.71260 -4.55912 1076 ft 137 kts 121°
2026-04-30 12:27 36.70812 -4.54866 833 ft 136 kts 119°
2026-04-30 12:28 36.70379 -4.53836 663 ft 133 kts 118°
2026-04-30 12:28 36.69962 -4.52819 429 ft 129 kts 119°
2026-04-30 12:28 36.69539 -4.51827 278 ft 129 kts 120°
2026-04-30 12:28 36.69128 -4.50834 98 ft 129 kts 120°
2026-04-30 12:29 36.68742 -4.49923 46 ft 99 kts 117°
2026-04-30 12:29 36.68505 -4.49354 47 ft 49 kts 117°
2026-04-30 12:29 36.68380 -4.49064 45 ft 34 kts 122°
2026-04-30 12:29 36.68232 -4.48894 42 ft 26 kts 152°
2026-04-30 12:30 36.68133 -4.48877 40 ft 12 kts 238°
2026-04-30 12:30 36.68164 -4.48982 40 ft 14 kts 298°
2026-04-30 12:30 36.68210 -4.49092 40 ft 14 kts 297°
2026-04-30 12:30 36.68252 -4.49195 40 ft 12 kts 297°
2026-04-30 12:31 36.68263 -4.49221 39 ft 2 kts 297°
2026-04-30 12:31 36.68276 -4.49252 41 ft 6 kts 297°
2026-04-30 12:31 36.68283 -4.49270 41 ft 1 kts 297°
2026-04-30 12:31 36.68291 -4.49296 41 ft 5 kts 278°
2026-04-30 12:32 36.68262 -4.49340 40 ft 9 kts 223°
2026-04-30 12:32 36.68199 -4.49396 42 ft 12 kts 188°
2026-04-30 12:32 36.68140 -4.49312 42 ft 16 kts 118°
2026-04-30 12:32 36.68101 -4.49219 41 ft 6 kts 115°
2026-04-30 12:33 36.68125 -4.49183 41 ft 6 kts 30°
2026-04-30 12:33 36.68158 -4.49161 40 ft 4 kts 27°
2026-04-30 12:33 36.68165 -4.49157 40 ft 0 kts 27°